Regional Weather Roundup
Issued by NWS

Home | Current Version | Previous Version | Text Only | Print | Product List | Glossary On
Versions: 1 2 3 4 5 6 7 8 9 10 11 12 13 14 15 16 17 18 19 20 21 22 23 24 25 26 27
000
ASPQ40 PGUM 170112
RWRPQ
WEATHER ROUNDUP FOR THE MARIANAS AND MICRONESIA
NATIONAL WEATHER SERVICE TIYAN GU
1100 AM CHST THU AUG 17 2017

GUZ001>004-170200-
MARIANA ISLANDS-

CITY           SKY/WX    TMP DP  RH WIND       PRES   REMARKS
GUAM AIRPORT   MOSUNNY   88  79  74 E5        29.82F HX 102
ANDERSEN AFB   PTSUNNY   86  75  70 E5        29.87F HX  95
ROTA AIRPORT   PTSUNNY   82  75  78 SE6       29.82F
TINIAN AP      PTSUNNY   82  79  89 E7        29.80S HX  93
SAIPAN AP      SUNNY     86  79  79 E6        29.81S HX  99

$$

PMZ161-170200-
REPUBLIC OF PALAU-

CITY           SKY/WX    TMP DP  RH WIND       PRES   REMARKS
KOROR AP       PTSUNNY   86  77  74 W8        29.80F HX  97
KOROR WSO      PTSUNNY   90  79  70 NW8       29.81F HX 105

$$

PMZ171>174-170200-
FEDERATED STATES OF MICRONESIA-

CITY           SKY/WX    TMP DP  RH WIND       PRES   REMARKS
YAP AIRPORT    NOT AVBL
CHUUK AP       CLOUDY    88  79  74 E8        29.79F HX 102
POHNPEI AP     CLOUDY    90  77  66 SE10      29.79F HX 102
POHNPEI WSO    CLOUDY    90  75  62 SE7       29.81F HX 100
KOSRAE AP      NOT AVBL

$$

PMZ181-170200-
REPUBLIC OF THE MARSHALL ISLANDS-

CITY           SKY/WX    TMP DP  RH WIND       PRES   REMARKS
KWAJALEIN AP   MOSUNNY   90  75  62 E16       29.81F HX 100
MAJURO AP      NOT AVBL
MAJURO WSO     MOSUNNY   88  77  70 E9        29.79F HX 100

$$





USA.gov is the U.S. government's official web portal to all federal, state and local government web resources and services.